Regional Weather Roundup
Issued by NWS Binghamton, NY

Home | Current Version | Previous Version | Text Only | Print | Product List | Glossary On
Versions: 1 2 3 4 5 6 7 8 9 10 11 12 13 14 15 16 17 18 19 20 21 22 23 24 25 26 27 28 29 30 31 32 33 34 35 36 37 38 39 40 41 42 43 44 45 46 47 48 49 50
000
ASUS41 KBGM 300410
RWRBGM
RWRBGM
BINGHAMTON REGIONAL WEATHER ROUNDUP
NATIONAL WEATHER SERVICE BINGHAMTON NY
1200 AM EDT SAT AUG 30 2014

Note: "fair" indicates few or no clouds below 12,000 feet with no
significant weather and/or obstructions to visibility.

* = Station(s) that does not report precipitation, such as rain,
snow, etc, also no thunder or fog.

!NYZ009-015>018-022>025-036-037-044>046-055>057-062-300500
...CENTRAL NEW YORK...

CITY           SKY/WX    TMP DP  RH WIND       PRES   REMARKS
BINGHAMTON     CLEAR     59  52  77 S6        30.22R
CORTLAND       FAIR      54  54 100 CALM      30.21S
DANSVILLE      CLEAR     59  55  87 S3        30.16S
ELMIRA         CLEAR     54  53  97 CALM      30.18S
ITHACA         CLEAR     58  54  86 SE5       30.20R
HAMILTON       CLEAR     54  52  94 CALM      30.21S
MONTICELLO     CLEAR     57  54  88 S5        30.27R
NORWICH        CLEAR     54  54 100 CALM      30.22S
PENN YAN       CLEAR     62  55  77 SW5       30.16S
ROME           CLEAR     59  55  87 E6        30.19F
SIDNEY         CLEAR     55  55 100 CALM      30.23R
SYRACUSE       CLEAR     60  55  83 SE7       30.16S
$$

!PAZ038>040-043-044-047-048-072-300500
...NORTHEAST PENNSYLVANIA...

CITY           SKY/WX    TMP DP  RH WIND       PRES   REMARKS
HAZLETON       CLEAR     55  54  94 E5        30.27S
SCRANTON       CLEAR     64  53  67 VRB7      30.22S
TOWANDA*       CLEAR     55  55 100 CALM      30.21S
$$
&&
KEY
WCI = WIND CHILL INDEX
VSB = VISIBILITY
HX  = HEAT INDEX
$$


USA.gov is the U.S. government's official web portal to all federal, state and local government web resources and services.